Total_Precipitation_Accumulation
0.79 0.89 0.99 1.03 1.10 1.18 1.28 1.33 1.37 1.33 1.30 1.24 1.04 0.98 0.94 0.92 0.97 0.89 0.93 0.74 0.49 0.40 0.38 0.39 0.39 0.42 0.51 0.67 0.82 0.95 1.16 1.29 1.36 1.41 1.42 1.46 1.51 1.58
0.88 0.99 1.03 1.03 1.05 1.14 1.27 1.44 1.53 1.51 1.37 1.14 1.03 1.07 1.09 0.99 0.93 0.80 0.75 0.72 0.53 0.41 0.37 0.37 0.36 0.37 0.41 0.54 0.67 0.78 0.92 1.03 1.15 1.25 1.30 1.33 1.36 1.45
0.79 0.91 0.99 1.02 1.06 1.11 1.20 1.29 1.44 1.56 1.43 1.22 1.16 1.22 1.28 1.25 1.08 0.90 0.75 0.68 0.58 0.46 0.37 0.35 0.34 0.38 0.44 0.50 0.60 0.69 0.75 0.81 0.93 1.06 1.17 1.25 1.30 1.34
0.81 0.84 0.83 0.88 0.99 1.01 1.07 1.12 1.23 1.42 1.38 1.29 1.33 1.36 1.39 1.33 1.24 1.06 0.87 0.76 0.71 0.54 0.41 0.35 0.34 0.35 0.37 0.38 0.45 0.59 0.69 0.74 0.76 0.80 0.87 0.99 1.12 1.21
0.73 0.73 0.71 0.73 0.78 0.86 0.96 0.95 0.97 1.10 1.24 1.32 1.43 1.50 1.57 1.46 1.28 1.14 1.02 0.92 0.74 0.63 0.52 0.42 0.37 0.35 0.35 0.34 0.37 0.46 0.58 0.70 0.76 0.79 0.82 0.89 0.95 1.04
0.62 0.59 0.61 0.64 0.66 0.70 0.80 0.85 0.87 0.96 1.10 1.20 1.38 1.58 1.60 1.64 1.52 1.30 1.20 1.14 0.90 0.66 0.61 0.54 0.47 0.41 0.37 0.33 0.32 0.37 0.47 0.63 0.79 0.84 0.88 0.97 1.05 1.06
0.56 0.52 0.50 0.49 0.51 0.57 0.60 0.66 0.74 0.84 0.89 0.98 1.14 1.39 1.53 1.62 1.58 1.40 1.26 1.27 1.15 0.86 0.71 0.65 0.61 0.53 0.47 0.41 0.33 0.31 0.37 0.51 0.72 0.88 0.94 1.02 1.14 1.21
0.48 0.48 0.44 0.39 0.42 0.43 0.41 0.46 0.54 0.60 0.71 0.85 0.93 1.13 1.33 1.42 1.53 1.62 1.50 1.34 1.29 1.15 1.03 0.96 0.84 0.77 0.62 0.47 0.39 0.31 0.30 0.38 0.50 0.66 0.80 0.94 1.04 1.18
0.42 0.44 0.35 0.30 0.37 0.40 0.37 0.32 0.35 0.38 0.46 0.64 0.77 0.88 1.10 1.29 1.45 1.63 1.62 1.55 1.47 1.41 1.31 1.29 1.10 0.93 0.78 0.65 0.55 0.41 0.33 0.30 0.34 0.41 0.51 0.66 0.77 0.89
0.36 0.42 0.42 0.38 0.38 0.40 0.40 0.35 0.31 0.31 0.33 0.39 0.50 0.67 0.92 1.28 1.46 1.53 1.66 1.70 1.69 1.64 1.54 1.52 1.39 1.19 1.04 0.90 0.79 0.58 0.45 0.36 0.33 0.32 0.35 0.40 0.52 0.64
0.35 0.39 0.44 0.43 0.41 0.32 0.35 0.36 0.36 0.35 0.31 0.34 0.41 0.53 0.71 0.98 1.36 1.49 1.53 1.47 1.45 1.31 1.16 1.18 1.25 1.26 1.24 1.14 0.99 0.84 0.67 0.52 0.44 0.42 0.41 0.40 0.44 0.53
0.50 0.50 0.44 0.40 0.37 0.31 0.34 0.40 0.37 0.35 0.36 0.37 0.38 0.41 0.47 0.64 0.93 1.17 1.21 1.16 1.07 1.09 0.90 0.80 0.85 0.91 1.04 1.03 0.93 0.86 0.79 0.76 0.67 0.54 0.46 0.44 0.52 0.52
0.54 0.57 0.52 0.42 0.31 0.29 0.32 0.39 0.39 0.39 0.49 0.51 0.51 0.51 0.53 0.57 0.66 0.83 1.01 1.04 0.95 0.83 0.78 0.73 0.72 0.72 0.72 0.76 0.79 0.76 0.75 0.77 0.75 0.72 0.65 0.59 0.59 0.60
0.61 0.63 0.64 0.47 0.35 0.34 0.33 0.34 0.36 0.37 0.47 0.55 0.54 0.51 0.51 0.52 0.55 0.67 0.83 0.92 0.99 0.90 0.81 0.78 0.75 0.69 0.63 0.59 0.61 0.61 0.62 0.71 0.81 0.89 0.84 0.79 0.75 0.78
0.66 0.65 0.62 0.52 0.42 0.38 0.41 0.41 0.37 0.39 0.46 0.53 0.53 0.46 0.43 0.48 0.59 0.72 0.84 0.92 0.96 0.96 0.87 0.79 0.75 0.73 0.64 0.58 0.52 0.50 0.53 0.61 0.68 0.81 0.94 0.96 0.90 0.87
0.70 0.69 0.62 0.59 0.52 0.49 0.51 0.46 0.41 0.47 0.51 0.52 0.55 0.57 0.56 0.59 0.63 0.69 0.77 0.83 0.88 0.89 0.83 0.78 0.78 0.76 0.70 0.60 0.57 0.54 0.50 0.53 0.54 0.60 0.79 0.99 1.11 1.16
0.89 0.90 0.84 0.77 0.68 0.62 0.63 0.63 0.61 0.63 0.59 0.60 0.65 0.71 0.69 0.63 0.61 0.64 0.74 0.77 0.73 0.73 0.76 0.77 0.78 0.81 0.77 0.62 0.55 0.56 0.54 0.50 0.44 0.41 0.49 0.68 0.89 1.07
0.92 0.92 0.91 0.85 0.78 0.76 0.77 0.76 0.73 0.71 0.66 0.66 0.68 0.73 0.76 0.70 0.63 0.63 0.69 0.73 0.69 0.68 0.68 0.69 0.74 0.82 0.86 0.80 0.55 0.44 0.44 0.42 0.39 0.40 0.43 0.45 0.56 0.63
0.89 0.90 0.87 0.86 0.80 0.79 0.80 0.79 0.75 0.74 0.73 0.73 0.72 0.73 0.78 0.78 0.73 0.68 0.65 0.68 0.70 0.72 0.70 0.67 0.65 0.63 0.61 0.61 0.57 0.40 0.34 0.33 0.35 0.40 0.46 0.41 0.38 0.39
0.85 0.87 0.86 0.84 0.82 0.79 0.77 0.78 0.79 0.80 0.76 0.72 0.73 0.74 0.77 0.76 0.77 0.71 0.65 0.62 0.66 0.73 0.75 0.68 0.57 0.48 0.43 0.40 0.41 0.41 0.38 0.36 0.34 0.36 0.39 0.39 0.35 0.30
0.89 0.87 0.83 0.78 0.77 0.77 0.75 0.73 0.73 0.73 0.73 0.75 0.73 0.71 0.74 0.71 0.68 0.67 0.66 0.65 0.66 0.71 0.67 0.56 0.48 0.52 0.57 0.60 0.54 0.48 0.43 0.41 0.46 0.42 0.39 0.40 0.40 0.38
0.86 0.80 0.79 0.73 0.71 0.71 0.72 0.71 0.70 0.70 0.72 0.76 0.76 0.73 0.71 0.65 0.59 0.58 0.62 0.61 0.57 0.59 0.65 0.64 0.66 0.64 0.64 0.60 0.55 0.50 0.48 0.49 0.54 0.62 0.56 0.42 0.34 0.32
0.77 0.72 0.71 0.66 0.62 0.61 0.60 0.61 0.62 0.65 0.66 0.69 0.70 0.71 0.71 0.65 0.58 0.56 0.58 0.60 0.60 0.61 0.71 0.77 0.73 0.65 0.57 0.56 0.57 0.57 0.55 0.56 0.57 0.62 0.62 0.48 0.31 0.23